الصفحة الرئيسية
METAR-TAF:

METAR-TAF

مطار :

ميسا, أريزونا, الولايات المتحدة

دائرة عرض: 33-28N, خط طول: 111-44W, ارتفاع: 424 متر

مراقبة الطقس الحالي

تاريخ ووقت الإصدار 23 دقيقة قبل الساعة 21:54UTC
ريح 5 عقدة من الشرق
درجة الحرارة 35°درجة مئوية
الرطوبة 9%
ضغط 1011 hPa
الرؤية: 16.1 كم
سماء صافية

METAR: KFFZ 162154Z AUTO 09005KT 10SM CLR 35/M02 A2985 RMK AO2 SLP082 T03501017

زمن: 15:17 (22:17 UTC)


TAF: مفقودة

أرصاد الطقس والتوقعات من أكثر من 4000 مطار (تقارير الطقس للمطار METAR والتنبؤ بالطقس بالمطارTAF).

المحطات المتاحة هي النقط الصفراء والحمراء على الخريطة.

حرك المؤشر فوق النقطة لمعرفة اسم المحطة.

ثم انقر لمعرفة أرصاد وتوقعات الطقس.

لتغيير الخارطة: اضغط على الأزرار الخضراء مع رمز الصليب الأسود للتكبير. على الزر الأخضر مع شرطة للتصغير، أو على الأسهم الخضراء للخرائط المجاورة.


METAR-TAF: